Skip Page Navigation
NASA JPL Caltech
NASA Logo - Jet Propulsion Laboratory + View the NASA Portal
+ Near-Earth Object (NEO) Program
Search JPL
JPL Home Earth Solar System Stars & Galaxies Technology
JPL Solar System Dynamics
BODIES ORBITS EPHEMERIDES TOOLS PHYSICAL DATA DISCOVERY FAQ SITE MAP
JPL Small-Body Database Browser
Search: [ help ]  
6948 Gounelle (1981 ET22)
Classification: Main-belt Asteroid          SPK-ID: 2006948
Ephemeris | Orbit Diagram | Orbital Elements | Physical Parameters | Discovery Circumstances ]

[ show orbit diagram ]
Orbital Elements at Epoch 2457000.5 (2014-Dec-09.0) TDB
Reference: JPL 12 (heliocentric ecliptic J2000)
 Element Value Uncertainty (1-sigma)   Units 
e .1588078342732341 4.7719e-08  
a 2.395210200131868 1.2897e-08 AU
q 2.014832055619766 1.1635e-07 AU
i 2.587100946768338 6.9899e-06 deg
node 26.49199932689763 0.00010645 deg
peri 90.31212638051737 0.00010913 deg
M 78.09911324584536 2.2313e-05 deg
tp 2456706.763796321509
(2014-Feb-18.26379632)
8.3947e-05 JED
period 1353.985070117066
3.71
1.0935e-05
2.994e-08
d
yr
n .2658818091464438 2.1474e-09 deg/d
Q 2.775588344643969 1.4945e-08 AU
  Orbit Determination Parameters
   # obs. used (total)      973  
   data-arc span      23190 days (63.49 yr)  
   first obs. used      1950-12-09  
   last obs. used      2014-06-06  
   planetary ephem.      DE431  
   SB-pert. ephem.      SB431-BIG16  
   condition code      0  
   fit RMS      .49345  
   data source      ORB  
   producer      Otto Matic  
   solution date      2014-Oct-09 14:08:36  

Additional Information
 Earth MOID = 1.03309 AU 
 T_jup = 3.511 
[ show covariance matrix ]

Ephemeris | Orbit Diagram | Orbital Elements | Physical Parameters | Discovery Circumstances ]

Physical Parameter Table
Parameter Symbol Value Units Sigma Reference Notes
absolute magnitude H 14.4 mag n/a MPO279588  

6948 Gounelle           Discovered 1981 Mar. 2 by S. J. Bus at Siding Spring in the course of the U.K. Schmidt-Caltech Asteroid Survey.
Matthieu Gounelle (b. 1971) is curator of meteorites at Muséum National d´Histoire Naturelle in Paris. His research encompasses both physical and theoretical studies focused on the evolution of the early solar system.
NOTE: some special characters may not display properly (any characters within {} are an attempt to place the proper accent above a character)
Reference: 20060809/MPCPages.arcLast Updated: 2007-08-08

Alternate Designations
 1981 ET22 = 1990 QL7 
Ephemeris | Orbit Diagram | Orbital Elements | Physical Parameters | Discovery Circumstances ]
ABOUT SSD CREDITS/AWARDS PRIVACY/COPYRIGHT GLOSSARY LINKS
FirstGov 2014-Dec-19 12:58 UT
(server date/time)  
NASA Home Page
Site Manager:   Donald K. Yeomans
Webmaster  Alan B. Chamberlin